RH
9 9 10 11 12 12 12 12 12 12 12 12 13 14 16 17 17 18 18 19 19 19 19 17 14 12 12 12 13 14 15 15 16 16 16 16 16 16 16 16 17 18 18 19 19 20 20 20 21 20 20 19 18 17 17 16 16 15 14 14 12 12 10 13 23 34 50 54 50 51 49 45 38 37 39 39 37 25 18 14 6 7 6 5 5 4 5 5
8 8 8 9 10 11 11 11 11 12 12 12 13 13 14 15 16 16 17 18 18 18 17 13 11 10 10 11 11 12 13 14 14 14 14 14 14 14 14 14 15 16 17 18 18 20 19 20 20 20 20 18 18 16 16 14 14 14 13 13 11 10 10 22 39 43 51 51 47 50 46 44 37 32 35 38 34 23 21 16 6 7 5 5 5 4 5 4
9 7 7 8 9 10 11 11 11 12 12 13 13 13 13 14 15 15 16 17 17 15 12 10 9 9 9 9 10 11 11 11 10 11 10 11 11 11 11 11 12 13 15 16 17 18 18 19 18 19 18 16 17 14 14 13 13 12 11 11 9 9 13 32 48 45 53 51 43 48 41 41 41 31 30 35 30 26 27 17 5 6 5 5 4 4 5 3
11 8 7 7 8 10 11 11 12 12 13 13 14 14 14 14 14 14 14 14 13 11 8 8 7 7 7 7 8 7 7 7 7 8 7 8 8 8 9 9 10 10 12 13 15 16 16 17 16 17 16 15 15 13 13 12 12 11 10 10 8 9 15 39 49 38 50 51 37 41 35 31 35 28 24 27 29 30 27 14 6 5 3 5 4 4 4 4
13 10 7 7 8 9 10 11 12 13 13 13 14 13 13 13 12 12 11 10 9 7 7 6 6 6 6 6 6 6 6 6 6 6 6 7 7 7 8 8 9 9 10 11 12 13 13 14 14 14 13 12 11 10 10 10 10 9 9 9 9 10 12 30 35 24 38 46 36 40 40 28 25 26 20 23 30 27 18 9 6 4 3 4 4 5 3 4
14 12 8 7 8 9 11 12 12 13 13 13 13 12 11 10 10 9 8 7 7 6 6 6 6 6 6 6 5 5 5 5 6 6 6 6 6 7 7 7 8 8 9 10 10 11 11 11 11 11 10 10 9 8 8 8 8 8 9 8 9 10 10 14 16 17 28 37 36 33 33 26 24 29 21 22 26 17 12 6 4 4 4 4 3 7 6 4
14 14 11 8 8 10 11 11 12 13 13 12 11 10 10 9 8 7 7 7 6 6 6 6 6 6 6 6 6 6 5 5 6 5 6 6 6 6 7 7 7 8 8 9 9 9 10 10 10 9 8 8 8 8 8 7 8 7 8 8 8 11 15 10 7 16 19 26 35 24 20 23 26 30 23 24 19 12 14 6 3 5 3 4 4 8 9 5
13 14 13 11 9 9 11 11 12 13 12 11 11 10 8 8 7 7 7 7 7 7 6 6 6 6 6 6 6 6 5 5 5 5 6 5 6 6 6 7 7 7 8 8 9 8 9 8 8 8 8 8 8 8 8 7 8 7 8 8 7 12 16 10 6 13 11 17 30 21 19 22 22 23 20 23 14 9 15 6 4 5 3 5 4 7 9 6
13 13 14 13 11 9 9 11 12 12 12 11 10 9 8 7 7 7 7 7 7 7 6 6 6 6 6 6 6 6 6 6 5 5 5 5 6 6 6 7 7 7 7 7 7 7 8 8 8 8 8 8 7 8 7 9 12 8 8 9 8 13 14 9 6 9 10 18 23 13 13 15 14 15 13 15 10 8 12 7 7 6 5 7 5 7 7 7
13 13 13 14 14 12 10 10 11 12 12 12 11 9 8 7 7 7 7 7 7 6 6 6 6 6 6 6 6 7 7 6 6 5 5 6 5 6 6 6 6 6 6 6 7 7 7 7 7 7 7 7 7 9 7 13 22 15 8 9 10 13 13 8 6 7 10 19 21 9 8 10 9 10 10 10 9 9 10 9 9 8 8 7 6 7 7 8
15 14 13 14 14 14 13 11 10 10 11 12 12 11 9 8 7 7 7 7 7 6 6 6 6 6 5 6 7 7 8 7 7 6 6 6 6 6 6 7 7 7 7 7 8 8 9 10 10 9 9 8 7 10 9 12 25 21 9 9 9 9 9 7 9 11 10 12 14 10 10 12 10 10 11 11 11 11 10 11 10 9 9 8 8 8 8 8
16 15 14 14 14 14 14 13 12 11 10 11 11 12 11 10 8 7 7 6 7 6 6 6 6 6 6 6 6 7 8 8 8 7 7 7 7 7 7 8 8 8 10 10 11 12 12 13 13 12 12 12 11 11 11 11 18 18 10 10 10 9 10 10 12 14 12 11 12 12 12 12 12 12 12 12 15 13 10 11 11 9 9 8 9 8 8 8
17 17 16 15 14 14 13 14 14 13 12 11 10 11 11 11 10 9 8 7 6 6 6 7 7 7 6 6 7 8 8 9 9 9 9 8 8 9 9 10 11 12 13 13 15 16 15 16 16 15 15 16 15 13 14 13 14 14 12 14 14 13 13 12 13 14 13 13 13 13 13 13 14 14 14 14 14 13 12 13 12 10 8 7 8 8 8 7
18 17 17 17 16 15 14 13 13 14 14 13 12 11 10 10 11 10 10 9 8 7 7 7 7 7 7 7 7 7 8 9 9 10 11 11 11 11 11 12 13 14 15 15 17 17 17 18 17 16 17 17 16 15 15 15 15 14 15 16 13 13 14 12 12 13 14 14 13 12 12 13 15 14 14 14 13 13 14 13 13 11 8 8 8 8 8 8
19 18 18 18 18 17 16 15 13 13 13 14 14 13 13 11 10 10 10 11 10 9 9 8 8 8 7 7 7 7 7 8 9 11 11 12 13 13 14 14 14 15 16 16 16 17 17 17 17 16 17 16 15 15 14 14 14 14 15 14 13 14 14 15 13 9 12 13 14 14 14 16 14 12 13 12 12 11 13 15 16 12 9 8 8 8 9 8
21 20 19 19 19 19 19 18 16 14 12 12 13 14 15 14 13 12 11 10 10 10 10 10 9 9 8 7 8 8 7 8 8 9 10 12 12 13 15 15 16 15 15 16 16 17 16 16 17 16 16 15 14 15 14 14 13 13 14 14 15 14 13 19 19 16 16 15 15 12 14 19 13 10 14 11 11 10 10 13 14 12 10 9 9 10 9 9
22 21 21 20 20 20 20 19 19 17 15 12 11 11 13 14 15 15 14 12 11 10 10 10 10 10 10 9 9 9 9 8 8 8 9 10 10 12 14 13 14 15 15 16 15 15 15 15 15 14 15 14 14 14 12 13 14 15 14 14 18 16 15 18 18 30 32 25 28 20 18 30 20 9 14 13 12 16 15 12 10 11 11 11 10 10 10 9
23 22 22 21 21 21 21 21 21 20 19 17 13 11 10 10 12 14 15 15 14 13 12 11 10 10 11 11 10 10 10 9 8 8 8 8 9 10 11 11 12 12 12 13 14 15 14 14 14 14 13 12 14 14 14 17 17 17 13 11 15 18 26 27 29 50 51 41 45 33 27 40 29 13 14 14 16 23 23 13 9 11 10 11 11 10 10 9
24 24 23 23 23 23 23 23 23 22 22 21 18 15 12 10 9 9 11 13 14 15 15 14 13 13 12 11 12 13 13 12 11 10 10 10 9 9 10 10 10 10 10 11 12 12 12 13 12 12 13 14 15 12 15 20 17 17 16 17 16 18 39 50 56 72 72 70 64 38 28 37 36 26 18 14 17 25 28 18 13 13 12 13 13 12 11 10
26 25 25 26 26 26 26 26 26 25 24 23 23 21 17 14 11 8 8 9 10 11 13 16 17 16 15 14 17 17 15 13 13 13 13 12 11 11 11 10 10 11 11 12 13 12 11 12 13 15 17 17 17 16 18 19 17 18 20 27 26 31 55 64 69 86 86 86 81 54 37 33 36 37 31 26 23 23 25 21 18 17 16 17 17 16 15 14
28 27 27 27 27 27 28 28 29 29 28 27 26 24 22 20 18 15 12 10 8 7 9 12 14 14 14 14 18 20 19 17 16 15 15 15 14 14 14 14 13 14 15 15 16 14 12 15 16 21 23 21 19 18 19 19 20 26 28 34 37 49 71 63 59 81 85 89 96 75 43 24 23 29 34 37 33 32 30 24 20 19 19 19 18 18 18 19
28 26 24 23 23 23 24 25 27 28 29 30 29 28 26 25 24 22 18 15 12 9 7 7 6 7 8 9 12 16 18 18 17 17 19 18 17 17 16 17 16 18 21 18 17 16 16 21 24 26 25 22 24 24 25 25 27 36 41 42 43 56 79 75 60 63 67 78 88 67 35 20 18 19 25 31 32 37 36 28 23 20 20 19 18 19 19 19
26 24 21 20 18 18 18 19 21 23 25 27 29 30 29 29 28 26 25 22 18 15 13 11 10 10 9 6 6 8 9 11 12 14 19 20 19 19 18 20 21 21 22 21 22 21 19 22 26 30 26 23 32 35 31 28 29 39 46 46 46 51 71 87 84 74 68 67 59 41 27 23 22 22 26 30 30 31 29 26 24 21 20 19 17 17 17 17
23 20 18 17 15 15 16 15 17 19 21 23 25 27 27 29 29 29 28 26 24 21 19 20 21 22 18 11 8 6 5 5 5 7 12 17 19 20 21 24 24 24 25 25 27 25 24 29 29 29 30 31 39 38 31 29 31 38 45 48 52 53 56 68 76 72 65 54 38 27 25 24 26 28 28 28 26 24 24 23 20 19 17 16 16 16 15 15
17 15 14 13 12 13 13 13 15 15 17 19 20 21 23 25 27 28 28 28 28 26 28 32 33 33 31 26 21 15 11 8 7 6 7 8 9 10 14 17 18 22 26 33 41 35 29 35 36 32 34 38 42 41 36 35 36 40 45 49 56 60 60 61 60 56 51 43 35 33 31 26 27 26 23 23 22 20 20 20 19 20 18 15 14 12 11 12
11 10 10 9 9 9 8 9 9 9 11 11 13 15 16 19 20 22 22 22 25 30 41 52 53 51 48 45 40 32 26 21 18 17 14 11 10 9 7 8 9 13 20 34 45 39 29 34 37 35 35 35 34 36 38 41 45 46 45 47 52 57 59 61 58 53 49 41 32 32 30 23 22 22 19 17 16 16 18 21 23 21 20 20 16 12 10 9
8 7 7 6 6 5 5 5 4 5 5 5 7 6 7 10 10 13 14 15 27 43 59 69 67 63 58 53 47 41 37 35 32 29 27 23 20 18 15 11 7 7 13 20 26 32 38 40 32 26 30 31 27 26 30 38 44 42 37 34 35 37 37 39 40 38 37 32 24 22 24 22 18 18 17 14 13 14 16 19 24 26 22 17 14 10 8 6
6 5 5 5 5 4 5 5 4 4 4 4 5 3 5 5 2 6 9 18 42 60 66 71 67 60 55 49 44 40 38 38 36 33 32 31 28 24 21 19 15 11 12 13 18 30 38 40 33 21 18 23 27 28 26 27 28 25 22 16 16 21 25 23 20 21 25 24 21 19 21 20 14 16 23 27 28 27 25 21 27 40 41 30 22 14 9 6
5 5 5 5 6 6 6 6 6 6 6 6 6 6 6 4 4 10 18 39 65 72 64 61 57 50 45 40 37 38 34 33 34 33 34 33 34 33 28 25 22 17 17 16 18 23 25 34 38 23 12 16 27 32 27 23 20 17 16 13 14 20 27 29 23 21 21 17 15 14 14 11 7 13 24 37 52 62 65 56 48 57 61 51 39 22 12 10
7 8 8 8 8 8 8 8 8 8 8 8 8 9 8 8 13 19 33 58 70 64 60 54 42 37 39 35 35 37 30 28 32 30 31 33 34 36 32 28 26 22 20 18 18 19 21 31 32 21 17 19 22 24 21 18 16 18 21 22 22 19 21 26 24 20 15 13 14 11 12 19 21 21 27 44 68 85 93 89 83 87 78 59 45 24 11 11
10 10 10 11 10 10 10 9 9 8 8 8 8 10 13 14 17 22 42 61 55 45 52 53 40 34 36 31 37 45 31 27 37 32 28 35 41 44 39 34 31 28 25 20 20 21 18 22 22 18 20 20 16 13 13 16 18 21 22 18 15 13 12 14 12 12 9 12 24 27 26 33 35 33 42 67 90 95 97 96 98 103 83 57 45 31 18 16
13 12 12 12 11 10 9 7 8 7 7 8 7 11 16 15 13 18 35 51 51 45 47 46 34 29 30 22 30 51 47 48 70 63 42 39 45 46 45 45 39 35 35 32 36 39 31 28 32 32 33 34 33 24 14 15 17 17 17 18 16 12 10 10 12 15 14 15 32 49 53 46 40 40 51 79 100 100 100 100 99 100 86 66 58 49 40 34
12 12 11 11 10 8 7 7 8 7 8 8 7 10 14 13 11 17 29 39 45 47 42 35 24 17 21 15 16 37 46 57 82 84 69 65 64 51 36 35 40 42 49 59 67 64 48 43 55 63 61 57 58 55 42 30 29 33 39 49 52 45 36 31 33 40 46 54 60 67 71 60 56 61 62 76 94 98 99 100 99 96 90 84 77 66 56 48
11 11 9 9 9 8 9 9 9 10 10 10 9 10 12 13 16 23 33 31 24 23 23 22 15 10 13 14 18 33 43 58 77 83 80 79 82 74 47 36 51 59 62 69 71 63 54 56 68 79 84 78 71 75 73 62 60 64 65 69 69 71 68 60 65 75 81 87 79 72 74 65 65 78 78 83 97 101 97 97 103 98 89 91 93 82 65 55
11 11 10 10 10 10 11 11 11 11 10 10 10 9 10 15 21 22 22 16 9 8 10 10 11 11 12 16 31 50 59 67 77 81 79 68 64 68 57 50 66 73 69 66 56 50 61 72 75 83 95 93 82 81 83 82 85 85 80 78 72 75 79 73 76 86 90 86 68 64 73 63 61 70 72 81 93 96 93 90 96 99 92 88 88 85 72 61
13 12 12 12 11 12 11 11 10 9 9 9 8 8 11 17 20 19 17 14 11 8 7 8 9 11 13 15 39 70 78 71 69 71 79 75 62 61 64 67 75 80 77 71 60 53 54 59 68 82 91 90 89 92 85 76 85 95 95 93 91 93 95 91 88 86 88 84 65 63 70 62 62 65 62 71 75 75 83 81 80 91 98 95 88 87 83 77
12 11 10 10 10 11 11 10 10 9 8 8 7 8 11 18 22 27 31 30 23 14 9 9 7 9 12 13 33 65 73 68 66 64 73 85 80 77 83 87 92 100 93 74 63 61 50 43 54 67 74 81 89 99 99 85 78 85 90 91 94 101 100 98 95 82 75 68 50 48 52 49 59 64 55 59 64 69 83 87 85 92 98 98 97 96 91 87
9 9 9 8 10 12 13 13 12 10 9 8 8 9 13 23 30 29 31 33 31 23 15 11 8 8 9 8 18 36 49 62 67 56 54 66 70 75 88 92 93 103 99 74 63 65 57 53 59 60 64 70 66 69 85 91 74 59 65 80 91 99 101 102 102 89 74 54 30 26 32 30 35 41 40 49 66 80 89 93 96 98 99 98 99 101 93 87
9 9 9 9 11 14 15 15 11 10 10 8 8 11 14 21 24 20 19 24 29 28 19 11 8 7 8 7 10 17 28 45 51 42 40 48 54 63 79 90 93 100 100 84 75 73 62 54 56 57 59 57 48 42 47 63 68 55 55 75 90 90 89 90 87 80 74 58 36 29 31 29 28 31 41 58 69 74 82 93 93 87 91 95 95 99 96 91
11 11 11 11 12 14 14 13 10 9 10 8 8 10 11 14 20 24 23 17 16 18 13 8 8 7 7 6 8 12 17 23 27 31 37 43 47 49 51 60 73 84 85 75 67 61 51 42 38 41 47 46 46 45 35 39 59 67 66 79 95 94 85 76 62 59 75 77 64 53 40 30 29 30 45 67 74 70 77 94 96 79 72 74 79 85 85 85
12 12 13 12 12 13 12 11 10 9 9 9 8 8 8 11 16 22 22 13 7 8 7 6 8 7 7 7 8 11 15 18 20 22 25 28 33 36 33 32 35 41 46 45 39 32 29 28 27 31 37 39 42 46 43 38 40 50 56 56 63 71 73 71 56 54 80 91 83 79 59 30 27 46 70 84 82 78 78 83 91 89 81 77 77 75 67 61
13 13 13 13 12 12 11 10 10 9 9 9 8 8 7 8 9 9 11 10 8 6 5 6 6 6 6 7 8 10 14 19 22 21 21 21 23 26 27 26 23 23 28 30 26 21 22 23 25 30 35 37 38 37 39 40 34 37 43 37 38 47 56 66 59 50 71 85 83 86 67 30 30 62 83 80 68 67 69 65 69 77 78 76 68 58 54 52
13 13 12 12 12 12 11 10 10 9 10 9 8 8 7 6 7 6 6 6 6 6 6 6 6 6 6 6 8 12 16 20 23 24 23 24 24 23 24 25 26 25 25 25 23 20 23 24 21 25 29 31 34 32 32 35 34 31 32 30 35 43 45 52 50 42 48 56 57 62 50 28 29 44 51 54 52 51 52 50 48 47 47 52 52 47 50 56
13 13 12 12 12 12 10 10 10 10 9 9 8 7 7 6 6 6 6 6 6 6 6 6 6 5 6 8 11 15 20 23 25 27 26 25 26 27 26 25 26 26 25 25 24 23 26 28 22 19 21 21 22 26 29 34 34 30 26 24 26 31 31 30 30 29 27 25 30 40 35 20 18 23 30 43 50 49 49 47 42 35 36 46 53 55 59 63
13 12 12 11 11 11 11 10 10 9 8 8 7 6 6 6 6 6 6 5 5 5 6 7 8 6 7 12 17 21 26 29 30 31 30 29 28 28 28 26 27 27 26 25 24 23 24 25 23 20 19 19 20 25 30 36 39 35 30 27 25 27 32 35 37 40 36 30 33 38 32 20 19 25 31 40 49 53 53 49 45 44 47 52 51 52 63 71
12 12 11 11 10 10 10 9 9 8 7 6 6 6 5 5 6 6 6 6 6 6 6 6 7 10 16 22 27 30 32 34 36 35 33 33 31 30 29 30 31 27 24 24 22 23 26 24 23 22 20 20 23 26 27 31 34 34 31 28 25 24 28 35 44 46 38 33 31 27 22 21 24 25 23 27 37 42 39 34 34 37 39 41 43 44 52 59
11 10 10 10 9 9 8 8 7 6 6 5 5 4 5 5 5 6 6 7 8 9 10 8 11 20 30 35 38 37 36 37 38 36 36 35 34 32 31 31 32 29 26 27 26 27 32 28 24 26 26 27 31 31 30 28 27 30 31 28 25 26 26 28 32 31 27 26 25 20 18 19 19 18 16 17 20 22 23 23 21 22 25 29 33 35 35 36
9 9 9 8 8 7 7 6 6 5 4 4 4 3 4 5 5 7 10 12 15 22 25 22 25 32 38 42 43 41 38 37 37 37 38 37 34 34 35 35 35 33 31 31 29 29 30 27 26 27 26 27 32 34 34 31 28 28 27 22 22 26 29 28 27 26 24 24 22 20 21 20 18 16 16 18 19 17 18 19 18 17 17 19 19 17 17 18
7 7 7 7 6 6 5 5 5 4 4 5 6 7 10 11 12 16 21 24 30 39 43 41 41 40 40 44 45 42 39 37 37 37 36 36 35 34 36 39 40 39 37 34 32 32 30 28 29 28 23 24 29 34 34 34 32 28 24 23 27 30 31 30 29 30 31 30 28 26 24 22 21 19 18 19 20 19 18 18 17 16 15 15 15 13 12 12
6 6 6 6 5 5 4 5 5 4 8 10 11 17 23 26 29 33 37 40 42 47 51 50 47 42 40 45 47 45 43 38 36 36 34 34 35 34 36 38 40 43 42 38 38 40 38 32 30 31 28 27 33 38 35 34 33 28 23 25 30 31 30 30 31 33 34 33 31 29 27 23 22 22 22 22 20 19 19 18 16 16 15 13 13 11 10 10
5 5 5 5 7 9 8 10 11 13 17 18 20 30 39 40 42 44 45 47 47 49 51 48 44 43 44 48 51 50 46 40 36 37 36 35 34 35 37 39 41 43 42 41 43 45 44 37 36 41 37 30 40 49 43 38 37 28 23 26 30 32 32 31 33 33 32 31 29 27 27 25 23 23 22 21 20 19 18 16 14 13 12 12 11 11 10 8
7 8 7 5 10 18 19 20 27 32 32 33 37 45 48 48 51 50 49 51 51 53 54 50 47 48 48 49 52 50 48 45 40 39 40 39 38 37 39 41 44 44 42 43 44 45 48 46 46 53 46 35 46 56 49 44 38 26 25 31 33 35 34 32 31 30 30 31 29 28 28 25 24 24 22 20 19 18 16 14 13 13 12 12 12 12 13 12
Wind_Speed
19 20 20 20 20 20 20 19 19 20 20 20 21 22 22 23 23 22 22 22 21 21 21 22 22 22 22 22 22 22 22 22 22 22 23 23 23 23 23 25 24 24 24 25 25 25 25 25 25 25 24 24 24 24 25 26 26 26 25 24 23 21 20 20 21 21 11 13 17 20 22 28 34 37 41 41 35 31 34 36 33 36 37 30 26 27 28 25
17 18 18 18 18 18 18 17 17 17 17 18 19 19 20 21 21 21 21 21 21 21 21 21 21 21 20 20 21 21 22 22 22 23 23 23 23 23 24 25 25 25 25 25 25 24 24 24 24 24 24 24 25 24 24 25 25 25 24 23 21 19 18 21 21 21 13 17 23 27 28 31 35 38 41 40 35 33 33 32 30 34 35 30 28 28 29 28
16 16 16 16 16 16 16 16 15 15 16 16 17 17 18 19 19 19 19 19 19 20 20 20 20 19 19 19 19 20 21 21 22 23 22 22 23 23 24 24 25 25 25 25 25 24 24 24 24 24 24 25 25 24 24 24 23 23 22 21 19 17 19 21 21 24 17 22 29 33 35 36 38 41 42 40 36 35 34 31 29 31 32 30 29 30 30 29
15 15 15 15 15 15 14 14 14 14 14 14 15 15 15 16 16 17 17 18 18 18 18 18 18 18 17 18 18 18 19 20 20 20 20 21 22 22 23 23 24 25 25 25 24 24 24 23 24 24 24 24 24 24 24 23 22 22 21 19 18 20 24 23 21 26 25 27 33 37 40 41 41 41 41 41 38 35 35 33 30 29 29 30 31 32 29 26
14 14 14 13 13 13 13 13 13 13 13 13 13 13 13 14 14 15 15 16 16 16 16 16 16 16 16 16 16 16 17 18 18 18 18 19 20 20 21 21 22 23 23 24 24 23 23 23 23 23 23 23 22 22 22 21 21 21 21 21 21 23 27 29 27 30 32 32 36 38 40 40 38 36 36 36 33 32 33 32 30 27 27 29 32 30 26 23
13 13 13 12 11 11 12 12 12 12 12 12 12 12 12 12 13 13 14 14 14 15 15 14 14 14 14 14 13 14 15 16 16 16 17 18 18 19 19 20 20 21 21 22 22 22 22 22 22 21 21 21 20 20 20 20 21 21 20 21 22 24 29 31 31 33 36 36 39 37 37 38 36 35 34 30 26 27 30 30 28 24 24 26 25 23 22 23
12 12 12 11 10 11 11 11 11 11 11 11 11 12 12 12 12 12 13 13 13 13 13 13 12 12 12 11 12 12 13 14 14 14 15 16 16 17 17 18 18 19 19 19 20 20 20 20 20 20 19 19 19 18 18 19 20 20 20 21 23 25 28 30 31 35 37 36 37 33 33 36 37 36 34 29 26 26 28 29 26 23 24 23 16 13 18 24
11 11 11 11 10 10 11 11 11 11 11 11 11 11 12 12 12 12 12 12 13 13 12 11 10 10 10 10 10 11 12 12 12 13 13 14 14 15 16 16 16 17 17 17 17 17 18 19 18 18 19 19 19 20 18 18 20 18 18 21 23 25 28 29 31 34 34 30 28 27 32 35 34 33 31 29 28 27 26 27 27 25 24 23 19 15 17 23
11 11 10 10 10 9 10 10 10 11 11 11 11 11 12 12 12 12 12 12 12 12 11 10 10 9 9 10 10 10 10 10 10 11 11 12 12 14 14 14 14 14 14 15 15 16 17 18 18 19 20 20 20 21 21 19 18 16 18 22 22 25 28 29 29 26 26 27 25 23 26 28 26 25 26 28 27 24 25 29 30 29 26 27 25 21 20 23
10 10 10 10 10 9 9 9 10 10 10 11 11 11 12 12 12 13 12 13 13 12 11 11 10 10 9 10 10 10 9 9 10 9 9 10 11 11 11 11 11 11 12 12 12 13 14 14 16 17 17 20 18 18 20 18 16 18 21 21 21 27 29 27 23 17 17 25 27 24 21 21 20 21 24 27 24 22 27 33 32 29 28 30 28 24 22 23
10 10 10 10 10 10 9 9 10 10 10 11 11 12 12 12 13 13 13 13 13 13 12 11 11 10 10 10 10 9 9 9 9 8 8 8 8 9 9 8 8 9 9 10 10 9 10 10 10 12 13 16 14 16 19 16 18 23 22 20 24 26 24 21 16 13 17 21 23 25 22 20 20 22 24 23 22 22 31 38 32 26 29 31 29 26 23 23
10 10 10 10 10 10 10 10 10 10 10 10 11 12 12 13 13 14 14 14 14 14 13 12 12 11 11 11 10 10 9 9 8 8 7 6 6 7 7 6 6 7 7 7 8 8 9 9 10 11 10 10 12 15 15 12 17 20 16 19 23 21 20 19 14 15 19 19 22 25 22 21 21 22 22 18 18 26 36 38 28 24 29 33 31 27 23 23
9 10 10 10 10 10 10 10 10 10 10 10 10 11 12 13 13 14 14 15 15 15 14 13 13 12 12 12 10 10 9 8 8 8 7 6 6 6 6 6 6 6 7 7 7 8 9 9 11 10 9 10 11 11 10 10 15 15 14 17 19 19 19 17 15 18 21 22 24 23 20 20 20 21 22 18 22 32 38 33 26 26 30 33 32 28 25 24
10 9 10 10 10 11 11 11 11 10 10 10 10 10 11 12 13 14 14 15 15 16 15 15 14 13 13 12 11 11 10 9 9 9 8 7 6 6 6 6 7 7 8 8 8 9 10 10 11 10 10 13 12 10 11 13 14 13 15 17 17 19 18 16 19 22 22 23 22 21 21 21 20 22 23 22 28 35 34 28 26 29 31 33 34 31 28 26
10 10 10 10 10 10 11 11 11 11 11 10 10 10 10 10 11 12 14 15 15 16 16 16 16 15 14 14 13 13 12 11 11 10 10 9 8 8 8 8 9 9 10 10 11 11 12 12 12 12 14 15 13 12 15 16 15 14 15 17 18 19 17 16 22 24 22 21 21 22 22 21 22 24 25 27 32 35 31 26 27 30 32 34 35 33 30 29
11 10 10 10 10 10 11 11 11 11 11 11 11 10 10 10 10 10 12 13 14 15 16 16 16 15 15 15 14 13 12 11 12 12 12 12 11 11 11 11 12 12 12 13 13 14 14 14 14 15 16 16 15 15 16 17 17 17 17 17 18 20 17 16 21 23 21 22 23 25 22 20 23 25 26 29 33 34 30 26 28 29 31 34 35 34 32 32
11 11 11 11 11 11 11 11 11 11 11 12 12 11 11 10 10 10 10 11 13 14 14 15 15 16 16 15 15 14 13 13 14 14 14 14 14 13 14 15 14 14 14 15 16 17 17 17 16 17 18 18 17 17 18 17 17 19 19 18 17 18 18 18 21 21 21 23 25 27 22 17 22 27 27 29 32 32 28 27 29 29 29 32 34 33 33 33
12 12 12 12 12 12 12 11 11 11 11 12 12 12 12 11 11 11 11 11 11 12 13 14 15 16 15 15 16 14 14 15 15 15 15 16 15 15 16 16 16 16 16 17 18 19 19 19 19 20 20 20 19 19 18 17 19 20 21 21 19 18 16 16 19 21 22 24 27 28 20 12 18 26 25 26 30 30 28 27 29 30 30 31 32 32 31 32
13 13 13 13 13 13 13 12 12 12 12 12 12 12 12 12 12 12 12 12 12 12 12 13 14 15 14 14 14 13 14 15 15 15 16 16 16 16 17 17 17 17 17 17 18 19 19 20 20 20 20 20 20 21 20 20 22 22 22 22 21 18 12 9 15 20 23 25 28 29 24 15 15 22 23 23 28 30 29 27 28 30 32 31 31 31 31 31
14 14 14 14 14 13 13 13 13 13 12 12 12 12 12 12 12 12 12 12 13 13 13 14 14 15 14 12 10 12 14 15 16 16 15 16 17 17 17 18 18 17 18 18 19 20 19 20 19 19 20 20 21 22 22 22 23 21 21 21 21 18 12 12 17 20 24 27 30 30 29 23 17 19 24 26 31 34 33 30 28 29 33 34 32 31 31 32
15 15 15 15 14 14 14 14 14 14 13 13 13 13 13 13 12 12 12 12 12 13 13 14 15 15 15 12 10 12 15 15 16 15 15 17 18 18 18 18 18 18 19 19 20 21 19 19 18 19 21 21 22 24 24 23 22 21 21 21 22 19 18 20 21 24 29 31 31 31 30 30 25 21 23 27 33 38 37 33 29 28 31 34 34 31 30 33
16 15 15 15 15 15 15 15 15 15 15 14 14 14 14 14 14 13 13 12 12 13 13 13 15 16 15 14 12 14 17 18 17 15 15 17 18 19 19 18 19 19 20 21 21 22 20 18 19 21 23 22 23 25 23 22 20 19 21 22 23 22 22 25 27 29 32 33 33 32 31 34 32 24 21 25 31 38 42 36 29 27 29 32 33 31 30 32
17 17 17 17 17 17 17 17 17 17 16 16 16 15 15 15 15 15 14 14 12 12 13 12 14 14 13 14 13 16 18 18 18 15 15 19 20 19 18 17 19 19 20 21 21 22 21 19 21 24 24 22 23 24 24 23 20 19 21 22 23 24 25 27 31 34 35 35 36 34 33 35 32 25 22 25 30 35 41 38 31 29 29 30 32 31 32 33
18 18 18 18 18 18 18 18 18 18 17 17 17 17 16 16 16 16 15 15 13 13 14 13 14 13 11 12 13 15 16 17 17 14 13 17 19 19 18 18 20 20 20 21 22 22 21 21 23 24 22 22 23 26 26 24 23 22 22 22 21 23 26 29 33 36 37 38 37 34 35 34 29 26 25 28 30 32 36 38 34 30 29 29 30 31 33 32
17 17 17 17 17 17 17 17 17 17 16 17 17 17 17 16 16 16 16 15 14 14 15 14 13 13 11 12 13 14 15 16 16 14 12 15 17 18 19 20 21 21 19 19 20 22 22 21 22 23 22 22 24 26 25 23 24 23 22 22 22 23 25 30 34 37 38 39 36 36 38 35 28 28 30 29 30 30 32 36 34 29 27 28 29 30 31 30
15 14 13 13 13 13 12 13 13 12 13 13 14 15 15 15 16 16 16 15 15 14 13 11 10 11 10 11 12 13 15 15 14 12 12 14 16 17 17 18 20 20 19 19 21 22 23 23 23 24 23 24 26 27 27 25 24 24 23 23 25 26 26 30 33 37 39 39 37 38 40 37 30 27 29 29 28 28 28 29 29 26 24 23 25 26 28 28
10 10 9 9 9 9 9 8 8 8 8 9 9 10 11 11 12 13 14 14 13 12 9 6 7 9 9 12 13 13 15 15 15 13 12 13 15 15 15 16 17 17 19 22 22 21 22 22 24 25 25 25 25 25 26 27 28 28 28 27 27 29 30 32 34 38 41 40 39 37 35 35 29 21 23 26 25 25 24 21 20 20 19 19 22 23 23 24
7 7 6 6 6 6 6 6 6 6 6 6 6 7 7 8 9 10 11 10 10 10 8 6 8 9 11 13 14 15 15 15 16 14 11 13 15 14 14 15 14 14 17 21 19 19 21 24 27 26 25 24 21 21 22 24 27 27 27 28 27 28 29 31 32 32 31 32 32 28 25 28 24 15 17 18 16 19 21 19 16 15 17 17 18 21 22 23
6 6 5 5 5 5 5 5 5 4 5 5 5 6 6 8 8 8 8 7 6 7 8 8 8 10 11 11 12 14 15 15 16 14 12 14 14 14 15 16 15 14 17 19 17 17 20 23 26 24 22 21 17 18 21 21 22 21 21 22 22 22 23 23 23 21 22 25 23 17 17 24 21 13 13 11 10 15 18 19 19 19 20 17 15 17 20 22
5 4 4 4 3 3 3 3 3 3 4 4 4 5 6 8 8 7 6 5 4 5 7 9 10 9 9 10 10 11 13 13 13 14 14 15 15 15 15 15 15 14 16 18 16 15 15 18 22 20 17 16 16 19 21 21 21 19 18 18 18 18 18 18 18 18 22 22 17 12 14 22 22 14 10 8 12 16 16 18 20 22 25 20 15 16 17 19
4 4 3 3 2 2 1 1 2 3 3 4 5 6 7 8 7 7 5 4 6 6 5 7 10 10 11 13 11 11 15 15 15 16 14 12 12 14 15 15 16 15 15 15 14 13 14 15 20 19 16 17 19 21 22 21 22 20 18 17 16 16 17 19 19 20 23 20 13 12 15 20 23 16 8 8 11 15 13 14 17 21 24 22 18 19 20 20
4 4 4 3 2 1 0 1 2 3 4 5 6 7 8 7 7 8 6 4 6 6 5 8 11 12 13 14 12 10 13 14 15 20 19 17 14 13 14 16 17 15 13 14 13 14 16 17 19 20 18 19 19 19 20 19 19 18 16 15 15 16 17 20 21 21 23 20 13 12 15 19 23 18 10 12 15 17 14 14 18 20 22 23 22 22 23 23
5 5 4 3 3 2 1 1 2 4 5 6 7 8 9 9 8 9 7 5 6 6 7 11 14 13 12 12 10 10 11 10 14 20 22 22 20 17 16 15 15 14 11 13 15 17 18 19 19 18 17 16 15 15 17 17 17 16 15 14 15 16 17 19 20 20 21 19 16 15 17 20 20 17 13 14 19 20 16 13 17 20 20 22 25 27 27 28
4 4 4 3 3 3 3 3 4 5 6 8 9 10 11 10 9 9 8 7 9 9 9 13 15 15 15 14 11 10 10 11 17 20 20 21 20 19 19 16 15 14 12 15 18 20 20 19 17 16 15 17 17 14 13 14 17 19 17 16 17 16 16 17 18 19 19 20 21 20 21 21 17 13 11 14 20 23 21 16 15 19 19 19 24 28 31 31
5 4 4 4 4 4 4 5 6 7 8 9 11 12 13 12 12 13 9 8 11 12 11 12 16 17 17 15 11 9 9 12 18 21 19 19 19 18 18 15 14 15 16 19 23 23 21 18 16 14 15 19 18 15 15 15 17 20 18 18 19 18 18 19 20 20 22 25 25 22 23 22 21 18 15 14 18 21 25 23 19 22 23 23 26 29 32 31
6 6 6 6 6 6 7 7 8 9 10 11 12 15 15 14 16 17 12 9 13 15 14 14 16 17 18 17 11 7 10 14 20 23 21 21 22 18 14 12 14 18 21 23 25 26 25 22 19 16 16 17 14 16 21 20 18 19 19 18 18 17 19 21 22 22 24 26 25 23 23 23 23 24 21 19 20 21 23 24 24 25 26 27 29 29 30 30
8 9 9 9 9 9 9 10 11 12 12 14 14 16 17 17 19 19 13 11 15 17 17 18 19 18 19 18 13 12 16 19 22 23 22 23 23 19 12 10 13 18 23 26 26 24 26 24 20 19 19 17 14 17 23 23 20 20 21 19 18 18 20 22 25 27 28 29 28 25 25 24 23 24 22 20 21 21 21 22 23 22 22 24 26 26 27 27
9 10 11 11 11 11 12 12 13 14 16 17 16 17 18 17 19 20 14 14 18 19 21 22 22 21 21 21 19 18 22 24 25 26 26 25 24 21 17 16 19 22 27 30 27 24 25 23 20 20 21 21 21 24 26 26 25 24 22 19 19 21 24 25 28 31 32 34 34 31 30 28 26 26 24 23 22 21 21 23 24 23 22 24 24 24 25 26
10 10 12 13 13 14 14 15 16 17 18 20 19 19 20 19 21 22 18 17 19 20 24 26 25 25 25 24 23 20 22 27 29 30 30 28 26 25 22 22 24 27 31 32 30 28 28 28 26 25 24 25 27 29 28 27 27 27 24 22 23 26 28 29 30 32 34 37 37 35 32 28 25 26 25 24 25 25 24 25 28 28 27 28 28 27 27 28
15 14 15 16 16 16 17 18 20 20 21 22 21 22 23 22 22 23 22 23 22 22 26 28 28 28 28 27 26 24 23 26 29 31 31 30 30 30 30 30 30 30 33 35 34 34 34 35 35 31 28 29 30 29 29 28 28 28 27 25 27 30 33 34 35 36 37 39 38 36 34 28 25 27 27 28 30 29 27 27 30 33 33 33 34 33 33 33
18 18 18 19 19 19 20 21 22 23 23 24 24 24 26 25 23 24 27 29 29 28 28 29 29 29 30 29 28 28 27 27 28 30 31 31 32 33 36 38 38 37 38 40 40 39 39 39 39 35 32 33 32 30 30 30 30 30 30 30 31 34 36 37 36 35 36 38 37 36 36 31 26 27 28 29 31 30 29 29 32 35 35 33 34 34 35 36
22 22 22 22 22 23 23 24 25 26 26 27 26 27 29 29 28 29 30 31 33 33 32 32 31 31 31 31 31 30 30 30 30 31 32 32 32 34 38 40 40 40 40 40 41 41 40 39 38 38 37 36 34 33 31 30 29 29 29 31 32 34 36 37 37 36 36 37 35 35 37 32 25 24 27 30 32 32 33 34 34 35 35 33 34 36 36 36
24 25 25 24 25 26 27 26 27 28 30 31 31 30 31 31 32 33 33 32 34 35 35 34 34 34 34 33 33 32 31 31 32 32 32 32 32 34 37 39 40 41 41 42 42 41 40 40 40 41 40 39 37 35 33 30 29 30 32 33 34 36 38 40 41 41 41 41 39 39 41 36 29 30 32 32 36 38 38 39 38 39 38 36 36 37 38 37
27 28 28 26 27 29 30 30 31 31 32 33 35 34 34 35 35 36 37 36 35 36 37 36 36 36 35 35 34 34 33 33 33 32 32 33 33 34 38 40 40 41 42 44 44 43 42 42 43 44 44 43 41 38 35 32 33 36 37 37 37 38 41 43 44 45 46 45 44 44 44 39 36 38 36 34 36 39 40 40 41 42 40 37 36 36 37 38
29 30 30 30 30 31 32 33 34 34 34 35 36 36 37 37 36 36 39 40 37 37 38 38 37 38 36 35 35 35 34 34 33 33 33 33 33 34 38 39 40 41 43 45 46 46 46 46 46 46 46 45 43 39 36 34 35 37 38 38 38 39 41 42 43 44 45 44 43 44 44 41 39 38 37 36 36 37 39 40 41 42 41 39 38 38 37 38
31 32 31 32 33 34 34 35 36 36 37 37 37 37 37 37 36 35 39 41 39 38 39 39 38 37 36 34 35 36 35 33 34 34 34 34 34 35 36 37 40 44 44 45 46 45 45 46 46 46 47 46 44 42 40 39 39 39 40 40 40 40 41 42 42 43 44 44 45 46 46 45 41 39 39 40 40 41 43 44 44 45 44 44 44 43 42 41
33 34 33 33 34 36 37 38 39 40 40 41 40 40 38 37 36 35 36 39 40 39 40 40 38 35 34 34 35 36 35 34 34 35 35 36 36 35 34 35 39 43 44 45 47 45 43 45 45 45 44 43 43 43 43 43 42 42 42 42 41 42 43 44 45 45 45 48 49 48 48 49 46 42 42 44 46 48 49 48 48 49 48 48 48 48 47 47
35 36 36 36 36 37 38 39 40 40 41 41 42 42 40 39 39 37 36 38 39 39 41 41 38 35 33 33 35 36 36 36 36 36 35 36 36 34 33 34 37 40 41 43 46 45 45 46 46 44 42 41 42 43 43 44 44 43 44 43 43 43 45 46 46 46 47 50 51 49 49 50 47 44 44 47 49 51 52 52 52 52 52 52 52 53 52 51
37 38 39 39 39 39 40 40 40 40 39 40 41 40 40 40 40 39 38 37 37 37 39 40 40 38 34 32 35 37 37 36 37 37 36 35 34 33 32 33 35 37 39 41 42 43 45 47 48 47 44 41 42 43 43 43 43 43 43 43 43 45 46 46 45 45 46 48 49 49 49 50 48 46 47 49 51 52 53 54 54 54 54 54 54 55 56 55
39 40 40 41 40 40 41 41 41 40 39 39 40 39 38 39 40 39 38 37 35 34 35 37 40 41 37 33 34 35 36 37 39 39 37 35 34 33 32 32 33 34 37 40 40 40 44 46 47 48 47 44 43 43 43 43 43 42 42 42 44 44 44 43 43 42 44 46 47 48 50 50 47 46 49 50 51 52 53 53 54 54 54 55 55 56 56 57
40 40 41 41 39 39 40 41 40 40 40 40 40 39 38 39 39 38 37 37 35 33 34 37 40 40 38 35 34 34 36 39 39 37 36 36 35 34 33 33 34 35 37 39 39 40 44 45 45 46 47 46 45 44 43 43 43 42 42 43 43 42 41 41 41 41 43 44 45 46 48 48 46 47 50 50 51 52 52 52 52 52 53 54 55 55 56 57
40 40 42 42 40 38 39 39 39 40 41 41 40 39 39 38 38 38 37 37 37 35 35 38 38 38 38 37 36 35 36 38 38 37 36 37 36 36 36 35 36 38 39 39 39 40 43 43 42 44 46 46 45 44 43 43 44 43 41 41 40 40 41 42 43 43 43 44 45 46 47 47 46 48 50 50 50 50 50 51 51 52 53 54 55 56 57 58
Wind_Direction
294 288 284 280 278 277 275 275 274 273 271 269 265 262 260 259 259 259 259 261 262 264 265 265 264 262 259 256 255 255 255 256 256 258 258 259 260 260 260 259 259 259 258 258 257 256 255 253 252 251 250 247 246 243 243 242 241 242 241 243 240 239 233 219 203 187 217 251 240 248 234 236 241 240 250 253 254 253 252 258 262 265 268 272 270 265 264 260
302 296 289 283 279 276 275 274 274 273 272 270 267 264 261 259 259 259 260 262 264 265 266 266 265 262 259 257 256 256 256 257 257 257 258 259 260 259 259 259 259 258 257 257 256 256 254 253 250 249 247 245 244 242 242 241 241 242 239 240 236 231 219 207 191 180 217 241 235 245 233 233 241 240 250 252 253 258 261 262 262 265 268 268 267 265 265 261
308 303 295 287 280 276 275 274 275 275 274 272 269 266 263 260 258 258 259 262 264 266 268 267 266 263 261 259 258 258 257 258 257 257 257 258 258 258 258 258 258 257 256 256 256 255 253 252 249 247 246 244 243 242 241 241 241 240 238 236 227 214 198 196 191 182 212 237 227 233 230 230 237 240 248 254 257 262 264 264 262 264 266 267 265 262 260 261
312 308 301 293 284 279 277 277 278 278 277 273 270 266 263 260 258 258 259 262 265 268 268 268 267 265 263 263 261 261 260 258 257 258 258 257 257 256 256 256 256 255 255 255 254 253 252 251 249 247 246 244 244 243 241 241 241 240 236 228 217 209 194 187 197 198 209 228 228 233 234 232 236 241 249 257 261 264 264 263 260 259 260 260 258 258 260 263
316 315 310 301 291 284 281 280 280 279 277 273 269 265 262 260 258 259 261 264 267 268 269 269 268 268 268 268 266 266 263 261 261 260 259 258 257 256 255 255 254 253 253 253 252 252 251 249 249 247 246 245 244 243 243 240 237 237 234 225 218 217 207 196 206 216 214 220 229 235 238 241 244 247 253 259 265 266 264 260 256 255 255 254 254 259 265 266
318 321 318 310 298 289 285 283 282 280 277 272 269 265 262 261 261 262 263 265 268 268 270 270 272 272 272 271 270 268 265 264 263 261 260 259 258 256 255 254 253 252 251 251 250 250 249 248 247 246 245 244 242 242 241 239 236 234 229 224 222 220 220 217 219 223 220 219 227 236 244 249 251 251 254 261 268 266 261 259 258 256 255 255 257 261 263 260
318 323 325 320 305 293 289 288 286 283 278 273 269 266 265 263 262 262 263 265 266 267 270 272 275 277 277 277 274 271 268 267 265 263 261 260 258 255 254 252 251 251 250 249 248 247 246 244 243 242 240 239 238 237 237 238 237 234 227 221 222 220 223 233 234 229 230 227 227 243 256 255 253 252 256 264 265 257 256 263 264 259 258 260 261 260 258 256
317 323 328 327 315 299 291 289 288 285 280 275 270 268 266 264 262 260 260 262 264 266 270 274 279 283 285 284 280 277 274 272 268 265 261 258 256 253 251 249 248 248 247 246 244 243 241 239 237 236 235 233 233 232 228 230 231 229 227 226 227 225 224 236 240 236 243 240 231 247 258 257 257 255 256 261 258 253 256 267 269 264 264 265 260 256 256 257
318 321 326 329 326 312 297 291 288 285 281 277 273 270 268 265 262 260 260 261 262 266 269 274 279 284 288 286 283 280 278 275 271 265 260 256 253 250 247 245 244 244 244 243 241 238 237 236 232 230 231 232 233 233 226 223 226 221 222 228 229 230 231 239 245 245 250 246 240 249 254 257 260 256 256 256 256 258 262 265 267 268 270 268 264 258 253 254
323 324 325 328 329 325 313 300 291 286 282 279 276 272 269 267 264 263 262 262 264 266 269 274 279 283 285 284 284 282 279 278 273 267 260 255 252 247 242 240 238 238 237 236 235 234 235 239 240 238 239 239 234 233 232 225 221 220 219 220 222 230 236 243 251 254 244 237 241 248 250 252 251 248 252 256 260 263 263 262 262 267 270 268 267 263 257 254
328 329 329 328 327 326 324 314 303 293 285 281 278 276 272 270 267 265 264 264 266 268 270 274 277 281 283 283 285 284 282 281 274 268 261 256 253 245 237 234 230 231 231 227 224 223 224 226 235 239 242 244 234 229 234 224 218 224 222 217 225 236 244 247 252 250 237 232 239 246 246 249 248 249 253 260 270 265 259 259 257 261 265 265 266 267 264 256
330 330 330 330 327 325 324 322 316 306 296 287 281 278 275 273 271 268 267 266 266 268 270 272 275 280 281 282 285 284 284 284 278 272 263 257 253 247 234 224 222 222 221 219 214 212 217 216 220 224 232 245 238 233 239 229 225 233 230 227 237 248 251 249 248 248 245 239 240 245 249 252 252 256 257 257 262 258 255 260 264 262 260 262 263 262 260 256
328 329 330 329 327 326 324 322 320 316 309 299 289 281 276 274 273 271 270 268 268 268 269 270 272 275 277 281 284 282 282 281 278 274 265 258 252 248 235 220 218 218 218 216 214 217 221 224 229 227 230 244 244 242 246 237 236 242 241 240 247 253 253 251 250 250 250 245 243 246 250 253 254 256 257 248 243 249 254 261 270 265 259 262 263 260 257 253
323 324 326 326 326 325 323 321 318 316 314 308 301 291 283 277 273 272 271 270 269 268 268 269 270 272 275 278 278 276 276 273 272 270 264 259 252 248 241 231 225 224 227 225 224 228 229 233 238 235 235 243 247 247 248 245 247 250 247 248 253 258 261 259 251 246 246 249 251 252 250 250 249 248 250 246 243 248 254 261 264 262 261 263 264 264 262 258
318 319 320 321 321 321 319 318 315 313 310 308 306 301 294 286 279 275 272 271 270 270 269 268 268 270 270 269 270 271 272 270 266 263 260 257 252 250 246 241 238 235 235 236 236 239 241 243 245 246 246 248 248 248 252 254 255 253 254 257 258 259 265 266 259 253 252 254 252 250 248 250 251 250 251 250 249 251 254 258 259 261 263 264 266 267 266 264
313 314 316 316 315 315 314 313 312 310 307 304 301 298 296 292 287 282 277 274 272 271 270 270 269 267 265 266 268 270 270 268 263 260 259 255 252 251 248 245 244 242 242 243 245 246 248 249 250 252 255 257 256 253 254 258 261 259 257 258 261 263 265 264 264 265 266 264 258 250 249 256 256 256 257 256 259 260 259 259 259 261 263 265 268 269 267 266
310 311 311 311 311 310 309 307 306 306 304 301 298 294 292 290 287 283 280 277 275 273 273 272 270 267 266 266 266 264 264 261 258 257 256 255 253 250 249 249 247 247 247 247 248 250 252 252 253 254 255 258 259 259 261 263 264 262 257 255 259 264 265 262 262 266 266 265 267 262 258 265 261 256 256 258 263 265 265 266 266 266 266 267 269 271 270 269
306 307 307 307 307 306 305 303 301 299 299 300 299 296 292 287 283 281 280 279 277 276 274 272 270 268 266 265 265 266 263 261 259 257 255 254 253 250 249 249 248 248 248 248 249 250 252 252 253 254 256 258 259 260 261 259 256 257 260 260 255 254 260 267 267 270 271 270 271 267 264 266 263 260 255 257 264 266 268 270 271 272 272 271 273 273 272 271
302 303 303 303 302 302 301 299 297 296 295 296 297 297 295 290 287 283 279 276 275 275 275 275 273 271 269 269 272 270 264 264 263 258 255 255 253 250 249 248 248 248 247 248 249 249 249 251 253 254 256 256 257 256 250 247 252 257 262 262 263 263 255 241 248 263 274 273 272 271 270 261 256 266 265 261 264 264 265 269 272 276 278 276 277 278 276 273
298 300 300 299 298 297 296 295 294 293 292 291 291 292 293 293 293 288 282 278 276 274 273 273 272 272 272 272 272 269 264 263 261 258 258 257 255 253 251 250 248 248 247 246 246 248 248 249 251 253 253 250 253 255 251 252 258 261 261 257 260 261 242 223 226 240 258 265 267 271 275 271 256 259 268 271 272 269 267 268 271 275 279 279 279 280 280 277
295 296 296 296 295 294 293 292 291 290 289 288 286 287 287 289 290 290 289 285 281 277 274 272 271 272 273 270 265 266 267 262 259 260 259 259 258 256 255 254 253 251 251 248 247 250 251 251 252 250 250 249 251 253 252 256 260 261 261 255 252 245 235 243 240 232 241 251 256 262 272 278 270 258 260 266 273 276 274 272 273 275 277 280 281 281 279 276
294 294 293 293 293 292 291 289 288 287 286 285 284 283 283 283 283 284 285 285 285 284 281 278 274 273 274 273 266 263 263 261 261 262 261 260 258 257 256 256 256 253 252 253 253 254 253 251 252 249 248 249 252 256 256 256 256 254 253 249 246 238 231 243 251 246 243 242 248 259 269 275 276 274 266 260 264 272 275 274 275 275 274 277 279 279 275 271
293 292 292 291 290 289 287 286 285 284 283 282 281 280 279 279 279 280 279 280 284 284 282 280 277 278 281 279 272 265 265 267 267 264 262 262 260 259 259 256 256 254 254 255 255 256 255 252 252 251 253 254 254 257 257 256 254 249 247 246 244 237 229 232 243 249 250 248 252 263 270 272 278 283 275 265 261 264 271 274 273 273 273 274 276 276 273 271
292 292 291 291 289 288 286 284 283 282 282 281 280 279 279 278 278 277 276 276 276 275 276 278 279 282 283 280 275 272 273 274 273 268 261 262 263 261 258 254 254 254 255 257 259 259 258 256 255 254 255 256 254 255 257 257 255 249 246 247 244 239 235 235 241 247 252 257 264 272 274 274 278 280 271 266 264 263 268 272 271 271 271 271 271 271 271 272
292 293 292 292 291 289 288 287 285 283 282 281 280 280 279 278 277 276 276 276 274 273 274 276 278 278 276 275 277 277 277 276 277 277 270 266 267 264 261 258 257 258 258 259 262 259 255 254 255 255 255 254 255 258 259 256 254 251 248 248 245 241 238 240 245 252 256 262 269 273 275 275 275 275 271 269 269 269 270 271 272 271 269 268 267 265 267 269
294 294 295 296 295 295 294 292 293 292 290 286 284 283 281 279 279 278 278 278 278 279 277 274 276 279 279 279 279 279 279 278 280 281 277 272 273 272 269 266 261 260 257 256 258 258 258 260 261 260 259 257 257 258 259 259 256 253 251 250 248 245 242 242 247 254 259 263 267 268 271 275 275 273 272 271 269 269 268 270 275 274 267 261 260 260 263 266
295 296 298 300 301 303 304 304 305 305 301 296 294 294 291 289 288 284 282 280 280 280 273 267 274 277 283 284 280 279 280 282 280 278 278 276 275 276 274 269 265 261 254 253 256 259 262 264 263 262 262 262 264 266 264 260 258 255 254 253 252 252 251 249 249 253 258 263 267 267 268 272 275 272 267 267 267 266 263 264 273 276 267 256 250 252 259 264
291 294 296 298 301 305 309 310 311 310 309 309 313 313 309 306 302 296 293 290 287 283 276 275 281 283 287 289 288 284 281 280 279 279 280 279 278 278 275 270 269 264 255 254 255 255 254 256 259 263 265 267 272 273 267 259 257 257 256 255 254 254 255 255 254 256 259 263 265 266 265 269 273 271 262 264 270 274 272 266 260 265 269 264 256 252 252 255
283 286 289 292 297 302 306 311 315 319 323 328 328 324 317 313 309 310 313 305 292 292 296 298 294 292 295 295 292 287 283 280 279 281 276 272 275 275 275 273 272 266 262 264 264 259 257 254 257 265 272 271 269 264 261 259 259 258 258 258 255 254 255 258 259 260 260 264 268 270 270 271 268 254 246 250 261 274 280 277 271 272 273 272 273 266 257 252
275 277 281 285 293 300 308 321 330 341 349 352 348 337 330 324 320 324 325 309 300 305 309 308 303 301 301 296 287 281 291 295 286 283 277 270 272 271 271 270 268 268 270 273 273 268 264 257 257 268 276 271 261 257 259 261 261 260 260 258 253 251 254 255 255 257 259 266 275 272 262 267 267 252 232 238 258 266 272 279 280 277 273 270 266 261 258 258
267 264 268 269 272 282 307 353 9 14 17 11 1 354 348 344 341 336 321 308 320 323 324 321 316 316 313 311 309 297 307 316 302 293 289 279 274 269 268 268 264 264 266 267 269 265 262 259 260 266 269 265 261 260 262 265 265 266 268 263 257 255 256 256 252 253 257 260 269 262 250 256 263 258 218 201 252 265 259 262 266 267 273 275 263 249 251 259
258 257 257 248 240 226 201 39 19 4 2 356 352 353 350 349 347 336 324 322 336 340 342 328 317 315 312 316 321 298 297 314 305 298 299 295 288 271 258 261 263 260 257 256 256 254 253 256 262 266 265 262 260 259 263 266 266 268 270 266 264 262 260 260 258 258 260 259 255 249 244 249 257 260 229 195 228 251 246 245 254 262 276 284 277 266 263 265
253 251 245 234 227 224 242 297 322 331 335 335 338 339 335 335 331 327 325 325 328 324 310 307 311 315 312 313 311 284 276 288 288 289 293 290 288 280 270 268 269 263 256 253 253 255 258 258 263 271 272 263 257 257 261 263 261 260 258 257 259 261 261 265 267 266 268 267 261 252 249 251 257 265 257 220 221 237 244 251 259 261 268 278 281 283 285 285
241 239 235 228 231 240 269 299 312 322 325 325 328 327 324 323 315 310 315 311 309 309 303 308 316 318 315 312 309 299 288 275 269 273 275 272 270 274 279 282 281 276 268 258 255 260 266 264 264 269 269 264 261 255 249 250 254 254 253 252 254 258 262 267 268 266 265 263 263 262 261 263 265 267 262 232 219 224 231 236 252 260 259 263 272 281 288 291
237 237 236 235 246 260 279 297 305 311 316 319 321 319 318 313 299 297 304 300 299 307 314 312 311 311 310 306 305 309 299 272 267 269 267 267 264 264 270 272 271 273 272 266 263 264 262 258 257 256 255 261 268 264 251 247 254 259 260 259 263 274 277 273 270 268 266 264 264 264 264 269 272 269 266 254 239 236 238 240 253 267 264 263 269 276 282 284
250 256 257 258 264 270 278 291 300 303 308 312 314 315 315 309 299 295 296 291 291 302 310 307 303 304 303 298 288 275 266 255 258 263 262 265 270 273 277 277 276 279 276 267 263 263 260 255 249 245 247 256 267 274 268 259 250 247 248 251 258 266 269 270 271 268 266 266 267 266 265 270 271 269 268 267 264 264 262 263 268 267 261 262 267 269 273 276
260 266 267 269 274 276 279 288 296 300 303 306 309 311 310 307 300 295 290 288 290 294 300 302 303 302 298 295 279 250 251 250 250 258 261 260 264 268 264 255 263 270 268 264 260 258 260 260 252 247 249 249 243 248 255 257 254 249 249 256 258 255 256 263 266 267 267 268 269 269 270 270 268 267 269 272 273 271 269 269 267 257 250 254 260 261 263 268
266 274 274 275 279 282 283 286 292 298 300 302 306 306 305 302 295 293 293 289 286 289 295 298 300 299 297 297 287 263 255 255 254 260 262 258 259 261 249 234 231 237 248 260 265 263 264 264 255 251 254 253 247 245 244 249 258 260 258 261 260 252 251 253 256 260 266 270 272 272 271 268 266 268 271 271 269 263 259 259 256 252 249 249 252 255 258 260
261 273 280 281 281 283 286 289 292 296 298 300 303 303 301 297 292 293 293 284 279 283 292 295 296 296 296 297 295 281 262 255 257 263 266 265 266 262 253 243 235 234 243 255 261 264 267 266 260 254 254 255 254 254 253 254 259 263 262 259 256 251 248 249 253 258 261 267 272 274 271 267 265 268 269 266 261 255 252 252 253 254 254 252 251 254 258 258
261 265 277 281 281 284 287 289 291 294 296 298 300 300 299 297 295 294 292 289 286 285 288 291 293 294 295 295 295 291 277 263 258 260 263 265 266 265 262 257 249 246 251 257 260 263 266 267 266 262 259 258 258 259 261 259 256 258 257 251 247 249 250 254 259 260 259 262 266 269 269 265 265 270 270 265 261 256 248 245 251 257 259 260 259 258 262 264
269 269 277 281 281 284 286 288 290 292 293 294 296 298 298 297 295 291 290 292 294 292 290 289 289 290 292 293 292 290 286 276 266 260 259 259 260 262 264 263 260 257 259 263 265 266 266 267 269 267 264 262 261 262 263 261 258 258 257 255 252 252 255 259 263 262 259 259 260 264 266 265 268 273 268 260 259 258 253 250 254 258 259 259 259 261 266 270
275 276 281 282 283 285 284 286 290 291 292 292 294 296 297 297 295 292 290 290 290 291 291 291 290 290 290 290 290 288 286 281 274 267 263 260 259 260 262 265 267 266 265 266 268 268 268 269 268 267 265 261 259 260 261 262 265 264 263 264 263 261 261 262 264 264 260 259 260 262 266 266 266 266 262 260 264 265 263 261 260 261 261 262 263 267 271 272
280 280 282 284 288 288 286 287 291 293 294 294 294 295 296 296 295 293 292 290 289 290 291 291 290 290 290 290 290 288 284 280 276 272 268 265 264 264 265 266 268 270 269 269 269 269 269 269 267 265 264 262 261 263 264 263 263 260 258 258 258 259 261 261 263 264 262 262 263 263 265 265 263 265 266 267 270 270 268 267 266 265 266 268 270 272 273 272
282 283 283 285 288 288 288 290 291 292 294 295 296 297 296 296 295 295 293 291 291 292 292 291 290 289 290 290 289 286 283 280 277 273 269 267 265 265 266 266 267 269 270 271 271 270 268 268 268 266 265 265 264 265 266 264 260 259 258 258 257 259 260 261 262 263 264 267 268 267 268 267 265 267 268 265 265 267 268 270 271 272 272 272 273 273 271 270
280 281 283 285 285 285 286 288 289 290 293 294 295 296 296 296 295 295 293 292 292 292 291 290 290 290 290 289 287 285 282 280 278 274 270 267 265 263 265 268 269 269 267 268 270 270 269 268 268 268 268 267 266 267 267 265 263 263 263 263 263 263 264 264 264 264 267 270 270 270 272 270 264 264 267 266 264 265 267 271 273 274 274 273 273 272 268 265
278 279 281 286 287 286 287 289 289 290 292 292 292 293 293 293 293 292 291 292 293 292 290 289 289 290 291 288 284 282 281 279 277 274 271 269 266 264 264 266 268 270 271 271 271 271 271 270 270 270 269 269 269 270 269 266 265 264 265 265 265 265 265 265 264 265 269 270 270 271 273 271 264 262 268 272 271 269 269 271 272 271 269 268 268 268 266 265
279 280 281 285 287 288 290 291 291 293 294 293 293 293 293 292 291 290 289 290 291 291 290 289 290 290 289 285 282 281 280 279 276 274 273 271 271 270 270 268 266 270 274 276 275 276 275 274 272 271 270 270 271 270 269 267 264 262 261 263 265 265 264 263 263 266 268 268 268 269 271 272 269 266 269 272 272 271 270 270 270 269 269 267 266 266 265 265
281 282 283 284 286 288 289 290 292 293 294 294 295 295 295 294 293 292 291 290 291 292 291 292 292 289 285 284 283 281 280 280 278 276 274 274 275 276 275 274 271 272 274 275 277 279 278 277 275 272 269 267 268 269 269 267 265 263 263 265 266 264 262 261 263 266 267 266 269 271 272 273 273 270 267 267 268 270 271 270 270 269 269 269 269 269 268 266
283 284 284 285 287 288 289 290 291 292 293 294 294 294 295 295 294 294 293 292 292 292 293 293 292 289 286 285 283 283 283 283 280 277 276 276 278 277 276 274 273 274 273 272 274 276 276 277 277 277 274 271 269 269 268 267 267 265 266 267 266 264 262 263 265 266 266 267 270 273 272 271 272 270 267 266 268 270 271 271 271 270 270 270 270 270 269 268
284 285 286 287 289 290 291 292 292 292 293 292 291 292 293 293 293 294 293 293 293 291 290 289 288 289 290 288 285 284 284 281 279 279 281 281 280 280 278 275 272 270 270 270 271 272 272 274 276 279 278 276 273 271 269 269 268 267 265 265 264 264 266 268 268 268 267 268 269 269 269 269 270 270 268 267 266 267 268 270 271 272 272 272 271 271 270 269
285 286 287 288 290 291 291 292 293 293 292 291 292 293 293 292 293 294 294 294 294 291 289 287 288 290 291 288 285 282 281 280 281 283 285 285 284 283 281 277 274 270 268 268 269 269 270 272 274 276 277 276 276 275 273 272 270 267 264 264 266 269 271 270 269 268 268 268 268 268 269 270 269 268 268 266 265 266 268 270 271 272 272 272 272 271 270 269
287 288 288 289 290 291 291 292 292 292 292 293 294 293 293 294 295 295 295 295 294 293 290 289 289 290 288 285 282 280 279 281 284 286 286 286 286 285 282 278 275 273 272 270 269 268 270 272 273 273 274 275 276 276 275 275 273 269 268 271 274 275 273 271 269 269 270 270 269 268 269 270 269 267 267 268 268 268 269 270 272 272 272 272 271 270 268 267